Regional Weather Roundup
Issued by NWS

Home | Current Version | Previous Version | Text Only | Print | Product List | Glossary Off
Versions: 1 2 3 4 5 6 7 8 9 10 11 12 13 14 15 16 17 18 19 20 21 22 23 24 25 26 27 28 29 30 31 32 33 34 35 36 37 38 39 40 41 42 43 44 45 46 47 48 49 50

489
ASUS43 KDMX 281801
RWRIA

WEATHER ROUNDUP FOR IOWA
NATIONAL WEATHER SERVICE DES MOINES IA
100 PM CDT TUE MAR 28 2017

NOTE: "FAIR" INDICATES FEW OR NO CLOUDS BELOW 12,000 FEET WITH NO
SIGNIFICANT WEATHER AND/OR OBSTRUCTIONS TO VISIBILITY.

* - THESE STATIONS ARE NOT NWS STATIONS...THUS NOT UNDER NWS
QUALITY CONTROL.  THEY ALSO DO NOT REPORT WEATHER SUCH
AS PRECIPITATION OR FOG.

IAZ001>003-012>014-020>022-031>034-043>046-281900-
   NORTHWEST IOWA

CITY           SKY/WX    TMP DP  RH WIND       PRES   REMARKS
CARROLL *      CLOUDY    50  45  81 E8G14     30.13F
CHEROKEE *     SUNNY     56  36  46 E12G18    30.13S
DENISON *      CLOUDY    50  41  71 E8        30.14S
LE MARS *      SUNNY     59  39  47 E8G14     30.13F
ORANGE CITY *  SUNNY     57  39  51 E9        30.13F
SHELDON *      MOSUNNY   55  39  54 E12       30.13S
SIOUX CITY     MOSUNNY   57  40  52 NE12      30.12F
6HR MIN TEMP:  27; 6HR MAX TEMP:  57;

SPENCER        SUNNY     58  37  45 E12       30.14R
6HR MIN TEMP:  29; 6HR MAX TEMP:  58;

STORM LAKE *   SUNNY     54  37  54 E12G17    30.12S
$$

IAZ055>058-069>071-079>083-090>094-281900-
   SOUTHWEST IOWA

CITY           SKY/WX    TMP DP  RH WIND       PRES   REMARKS
ATLANTIC *     CLOUDY    48  43  81 E8        30.13S
AUDUBON *      CLOUDY    48  43  81 E6        30.13F
CLARINDA *     CLOUDY    50  43  76 E8        30.13F
COUNCIL BLFS *   N/A     48  45  87 E10       30.11F
CRESTON *      CLOUDY    48  43  81 E8        30.13S
HARLAN  *      CLOUDY    48  45  87 E9        30.16S
LAMONI         CLOUDY    52  43  71 E5        30.11S
6HR MIN TEMP:  45; 6HR MAX TEMP:  52;

RED OAK *      CLOUDY    48  41  76 E8        30.12F
SHENANDOAH *   CLOUDY    50  41  71 E8        30.11F
$$

IAZ047>049-059>061-072>074-084-281900-
   CENTRAL IOWA

CITY           SKY/WX    TMP DP  RH WIND       PRES   REMARKS
AMES           CLOUDY    50  44  80 E6        30.14S
6HR MIN TEMP:  45; 6HR MAX TEMP:  50;

ANKENY *       CLOUDY    48  45  87 NE6       30.15S
BOONE *        CLOUDY    48  46  93 E5        30.13S
CHARITON *     CLOUDY    50  45  81 NE6       30.12F
DES MOINES     CLOUDY    51  42  71 E3        30.13F
6HR MIN TEMP:  48; 6HR MAX TEMP:  52;

GRINNELL*      CLOUDY    50  41  71 E3        30.15S
MARSHALLTOWN   CLOUDY    50  42  74 E7        30.13R
6HR MIN TEMP:  44; 6HR MAX TEMP:  50;

NEWTON *       CLOUDY    50  43  76 E6        30.13S
PELLA *        PTSUNNY   50  43  77 CALM      30.15S
$$

IAZ004>006-015-016-023>025-035-036-281900-
   NORTH CENTRAL IOWA

CITY           SKY/WX    TMP DP  RH WIND       PRES   REMARKS
ALGONA *       SUNNY     55  41  58 NE13      30.14S
CLARION *      PTSUNNY   54  45  71 SE10      30.14S
ESTHERVILLE    SUNNY     56  40  55 NE12      30.14S
6HR MIN TEMP:  31; 6HR MAX TEMP:  56;

FORT DODGE *   PTSUNNY   52  39  62 E10       30.15S
MASON CITY     SUNNY     53  38  56 E8        30.15F
6HR MIN TEMP:  30; 6HR MAX TEMP:  53;

FOREST CITY *    N/A     54  37  54 E9        30.15S
WEBSTER CITY * CLOUDY    50  43  76 SE8       30.13S
IOWA FALLS *   CLOUDY    51  42  72 E5        30.15S
$$

IAZ007>011-017>019-026>030-037>042-050>054-066-281900-
   NORTHEAST IOWA

CITY           SKY/WX    TMP DP  RH WIND       PRES   REMARKS
CEDAR RAPIDS   CLOUDY    50  44  80 E5        30.12S
6HR MIN TEMP:  45; 6HR MAX TEMP:  50;

CHARLES CITY * SUNNY     54  39  58 E6G15     30.14S
CLINTON *      CLOUDY    49  43  80 E10       30.15S
DECORAH *      SUNNY     50  39  66 NE8       30.13F
DUBUQUE        CLOUDY    47  41  80 NE8       30.14S
6HR MIN TEMP:  43; 6HR MAX TEMP:  48; 6HR PCP:  0.01;

MONTICELLO *   CLOUDY    52  43  71 NE9       30.13S
OELWEIN *      CLOUDY    52  43  71 E8        30.13F
WATERLOO       PTSUNNY   53  40  61 VRB6      30.13S
6HR MIN TEMP:  44; 6HR MAX TEMP:  55;

$$

IAZ064-065-067-068-078-281900-
   EAST CENTRAL IOWA

CITY           SKY/WX    TMP DP  RH WIND       PRES   REMARKS
DAVENPORT      CLOUDY    50  44  80 E7        30.14S
6HR MIN TEMP:  46; 6HR MAX TEMP:  50; 6HR PCP:  0.01;

IOWA CITY      CLOUDY    51  45  79 NE8       30.15R
6HR MIN TEMP:  48; 6HR MAX TEMP:  53;

MUSCATINE *    PTSUNNY   50  46  87 NE8       30.14S FOG
QUAD CITIES    CLOUDY    50  46  86 E5        30.14R
6HR MIN TEMP:  47; 6HR MAX TEMP:  50; 6HR PCP:  0.01;

$$

IAZ062-063-075>077-085>089-095>099-281900-
   SOUTHEAST IOWA

CITY           SKY/WX    TMP DP  RH WIND       PRES   REMARKS
BURLINGTON     CLOUDY    51  46  83 NE6       30.11S
6HR MIN TEMP:  48; 6HR MAX TEMP:  51;

FAIRFIELD *    CLOUDY    52  43  71 NE5       30.13S
FORT MADISON * CLOUDY    54  54 100 E6        30.13S
KEOKUK *       CLOUDY    54  45  71 VRB5      30.11S
OSKALOOSA *    CLOUDY    50  44  80 NE3       30.14S
CENTERVILLE *    N/A     52  48  87 CALM      30.13S
OTTUMWA        CLOUDY    52  46  80 NE8       30.13S
6HR MIN TEMP:  46; 6HR MAX TEMP:  52;

WASHINGTON *   CLOUDY    52  46  82 CALM      30.14F
$$

ABBREVIATIONS USED IN REMARKS
   TC - TEMPERATURES IN CELSIUS
  WCI - WIND CHILL INDEX
   HX - HEAT INDEX
  VSB - VISIBILITY
$$





USA.gov is the U.S. government's official web portal to all federal, state and local government web resources and services.